Regional Weather Roundup
Issued by NWS

Home | Current Version | Previous Version | Text Only | Print | Product List | Glossary On
Versions: 1 2 3 4 5 6 7 8 9 10 11 12 13 14 15 16 17 18 19 20 21 22 23 24 25 26 27 28
000
ASUS44 KLIX 270511
RWRLA
LOUISIANA WEATHER ROUNDUP
NATIONAL WEATHER SERVICE NEW ORLEANS LA
1200 AM CDT TUE SEP 27 2016

NOTE: "FAIR" INDICATES FEW OR NO CLOUDS BELOW 12,000 FEET WITH NO
      SIGNIFICANT WEATHER AND/OR OBSTRUCTIONS TO VISIBILITY.
      SKY/WX - SKY CONDITION AND SIGNIFICANT WEATHER.
      TMP - AIR TEMPERATURE.    DP   - DEWPOINT TEMPERATURE.
      RH  - RELATIVE HUMIDITY.  PRES - PRESSURE.
      HX  - HEAT INDEX.         WCI  - WIND CHILL INDEX.

*  THESE STATIONS ARE NOT NWS OR FAA STATIONS AND ARE NOT UNDER
   NWS QUALITY CONTROL.

LAZ040-048-061>063-065-066-069-270600-
SOUTHEAST LOUISIANA

CITY           SKY/WX    TMP DP  RH WIND       PRES   REMARKS
N.O. AUDUBON   NOT AVBL
N.O. INTL ARPT MOCLDY    80  73  79 W7        29.98F
N.O. LAKEFRONT PTCLDY    82  73  74 N3        29.98F
N.O. DOWNTOWN*   N/A     82  74  76 NW5       29.99S
RESERVE*       FAIR      76  74  93 CALM      29.99F
SLIDELL        CLEAR     73  71  93 N3        29.97F
BATON ROUGE    CLOUDY    76  72  87 N8        29.99F
BOOTHVILLE     CLEAR     80  73  79 CALM      29.97F
BELLE CHASSE   MOCLDY    74  73  97 W3        29.98S
BOGALUSA*      FAIR      74  70  87 CALM      30.01S
GALLIANO*      NOT AVBL
NEW ROADS*     FAIR      74  71  89 MISG      30.00S
GONZALES*      FAIR      75  72  92 N3        29.99S
HAMMOND*       PTCLDY    73  70  88 CALM      29.99S
HOUMA*         MOCLDY    74  73  96 NE3       29.99S
PORT FOURCHON* CLEAR     79  72  78 NW3       29.98S

$$

LAZ041-044-053-054-270600-
SOUTHWEST LOUISIANA

CITY           SKY/WX    TMP DP  RH WIND       PRES   REMARKS
LAKE CHARLES   CLOUDY    76  73  91 NE5       30.00F
LAFAYETTE      MOCLDY    76  73  91 N5        30.00S
PATTERSON      PTCLDY    76  74  93 SW3       30.00S
SALT POINT     NOT AVBL
NEW IBERIA     PTCLDY    75  69  81 CALM      30.00F
CHENAULT AIRPK   N/A     75  72  89 N7        30.01S

$$

LAZ027-028-270600-
CENTRAL LOUISIANA

CITY           SKY/WX    TMP DP  RH WIND       PRES   REMARKS
FORT POLK      CLOUDY    74  68  82 N10       30.04S
ALEXANDRIA INT CLOUDY    73  66  78 N9        30.02S
ALEXANDRIA     PTCLDY    73  65  75 N6        30.03F

$$

LAZ001-002-270600-
NORTHWEST LOUISIANA

CITY           SKY/WX    TMP DP  RH WIND       PRES   REMARKS
SHREVEPORT     CLOUDY    69  58  67 NE9       30.09F
BARKSDALE AFB  CLOUDY    66  58  75 NE3       30.09F
DTN SHREVEPORT CLOUDY    68  58  70 N5        30.09F

$$

LAZ014-016-270600-
NORTHEAST LOUISIANA

CITY           SKY/WX    TMP DP  RH WIND       PRES   REMARKS
MONROE         CLEAR     68  59  73 N9        30.08S
TALLULAH       PTCLDY    70  60  70 VRB5      30.03F

$$





USA.gov is the U.S. government's official web portal to all federal, state and local government web resources and services.